Time,TemperatureF,DewpointF,PressureIn,WindDirection,WindDirectionDegrees,WindSpeedMPH,WindSpeedGustMPH,Humidity,HourlyPrecipIn,Conditions,Clouds,dailyrainin,SoftwareType,DateUTC
2013-01-03 00:02:00,63.3,62.8,30.04,WSW,251,0.0,1.0,98,0.01,,,0.01,meteohub,2013-01-03 05:02:00,
2013-01-03 00:04:00,63.3,62.8,30.04,WSW,251,0.0,1.0,98,0.01,,,0.01,meteohub,2013-01-03 05:04:00,
2013-01-03 00:10:00,63.3,62.8,30.04,WSW,251,0.0,1.0,98,0.01,,,0.00,meteohub,2013-01-03 05:10:00,
2013-01-03 00:16:00,63.3,62.8,30.04,WSW,251,0.0,0.0,98,0.01,,,0.00,meteohub,2013-01-03 05:16:00,
2013-01-03 00:17:00,63.5,63.0,30.04,WSW,251,0.0,0.0,98,0.01,,,0.00,meteohub,2013-01-03 05:17:00,
2013-01-03 00:22:00,63.5,63.0,30.04,WSW,251,0.0,0.0,98,0.01,,,0.00,meteohub,2013-01-03 05:22:00,
2013-01-03 00:27:00,63.7,63.3,30.04,WSW,251,0.0,0.0,99,0.01,,,0.00,meteohub,2013-01-03 05:27:00,
2013-01-03 00:32:00,63.7,63.1,30.04,WSW,251,0.0,0.0,98,0.01,,,0.00,meteohub,2013-01-03 05:32:00,
2013-01-03 00:37:00,63.7,63.1,30.04,WSW,251,0.0,0.0,98,0.01,,,0.00,meteohub,2013-01-03 05:37:00,
2013-01-03 00:42:00,63.9,63.3,30.04,WSW,251,0.0,0.0,98,0.01,,,0.00,meteohub,2013-01-03 05:42:00,
2013-01-03 00:47:00,64.0,63.5,30.04,WSW,251,0.0,1.0,98,0.01,,,0.00,meteohub,2013-01-03 05:47:00,
2013-01-03 00:52:00,64.0,63.5,30.03,WSW,251,0.0,1.0,98,0.00,,,0.00,meteohub,2013-01-03 05:52:00,
2013-01-03 00:57:00,64.2,63.9,30.03,WSW,251,0.0,1.0,99,0.00,,,0.00,meteohub,2013-01-03 05:57:00,
2013-01-03 01:02:00,64.2,63.9,30.03,WSW,251,0.0,1.0,99,0.00,,,0.00,meteohub,2013-01-03 06:02:00,
2013-01-03 01:07:00,64.4,64.0,30.03,WSW,251,0.0,1.0,99,0.00,,,0.00,meteohub,2013-01-03 06:07:00,
2013-01-03 01:12:00,64.6,64.2,30.03,WSW,250,1.0,2.0,99,0.00,,,0.00,meteohub,2013-01-03 06:12:00,
2013-01-03 01:17:00,64.8,64.4,30.03,WSW,250,1.0,2.0,99,0.00,,,0.00,meteohub,2013-01-03 06:17:00,
2013-01-03 01:22:00,64.8,64.4,30.03,SSW,202,0.0,3.0,99,0.00,,,0.00,meteohub,2013-01-03 06:22:00,
2013-01-03 01:27:00,64.8,64.2,30.03,SSW,202,0.0,3.0,98,0.00,,,0.00,meteohub,2013-01-03 06:27:00,
2013-01-03 01:32:00,64.8,64.2,30.03,SSW,202,0.0,3.0,98,0.00,,,0.00,meteohub,2013-01-03 06:32:00,
2013-01-03 01:37:00,64.8,64.2,30.03,SSW,202,0.0,2.0,98,0.00,,,0.00,meteohub,2013-01-03 06:37:00,
2013-01-03 01:42:00,64.6,64.0,30.03,SSW,202,0.0,2.0,98,0.00,,,0.00,meteohub,2013-01-03 06:42:00,
2013-01-03 01:47:00,64.6,64.0,30.03,SSW,202,0.0,2.0,98,0.00,,,0.00,meteohub,2013-01-03 06:47:00,
2013-01-03 01:52:00,64.6,64.0,30.03,SSW,202,0.0,2.0,98,0.00,,,0.00,meteohub,2013-01-03 06:52:00,
2013-01-03 01:57:00,64.6,64.0,30.03,SSW,202,1.0,1.0,98,0.00,,,0.00,meteohub,2013-01-03 06:57:00,
2013-01-03 02:02:00,64.6,64.0,30.03,SSW,202,0.0,1.0,98,0.00,,,0.00,meteohub,2013-01-03 07:02:00,
2013-01-03 02:07:00,64.6,64.0,30.03,SSW,202,0.0,1.0,98,0.00,,,0.00,meteohub,2013-01-03 07:07:00,
2013-01-03 02:12:00,64.6,64.2,30.03,SSW,202,0.0,1.0,99,0.00,,,0.00,meteohub,2013-01-03 07:12:00,
2013-01-03 02:17:00,64.6,64.2,30.03,SSW,202,0.0,1.0,99,0.00,,,0.00,meteohub,2013-01-03 07:17:00,
2013-01-03 02:22:00,64.8,64.4,30.03,SSW,202,0.0,1.0,99,0.00,,,0.00,meteohub,2013-01-03 07:22:00,
2013-01-03 02:27:00,64.8,64.4,30.03,SSW,202,0.0,1.0,99,0.00,,,0.00,meteohub,2013-01-03 07:27:00,
2013-01-03 02:32:00,64.8,64.4,30.03,SSW,202,0.0,1.0,99,0.00,,,0.00,meteohub,2013-01-03 07:32:00,
2013-01-03 02:37:00,64.8,64.4,30.03,SSW,202,0.0,0.0,99,0.00,,,0.00,meteohub,2013-01-03 07:37:00,
2013-01-03 02:42:00,64.9,64.6,30.02,SSW,202,0.0,0.0,99,0.00,,,0.00,meteohub,2013-01-03 07:42:00,
2013-01-03 02:47:00,64.9,64.6,30.02,SSW,202,0.0,0.0,99,0.00,,,0.00,meteohub,2013-01-03 07:47:00,
2013-01-03 02:52:00,65.1,64.8,30.02,SSW,202,0.0,1.0,99,0.00,,,0.00,meteohub,2013-01-03 07:52:00,
2013-01-03 02:57:00,65.3,64.9,30.02,SSW,200,0.0,3.0,99,0.00,,,0.00,meteohub,2013-01-03 07:57:00,
2013-01-03 03:02:00,65.5,65.1,30.02,SSW,197,1.0,3.0,99,0.00,,,0.00,meteohub,2013-01-03 08:02:00,
2013-01-03 03:07:00,65.5,65.1,30.02,SSW,197,1.0,3.0,99,0.00,,,0.00,meteohub,2013-01-03 08:07:00,
2013-01-03 03:12:00,65.5,65.1,30.02,SSW,197,0.0,2.0,99,0.00,,,0.00,meteohub,2013-01-03 08:12:00,
2013-01-03 03:17:00,65.7,65.3,30.02,SSW,197,0.0,2.0,99,0.00,,,0.00,meteohub,2013-01-03 08:17:00,
2013-01-03 03:22:00,65.7,65.3,30.02,SSW,197,0.0,2.0,99,0.00,,,0.00,meteohub,2013-01-03 08:22:00,
2013-01-03 03:27:00,65.7,65.3,30.02,SSW,197,0.0,2.0,99,0.00,,,0.00,meteohub,2013-01-03 08:27:00,
2013-01-03 03:32:00,65.5,65.1,30.02,SSW,199,0.0,2.0,99,0.00,,,0.00,meteohub,2013-01-03 08:32:00,
2013-01-03 03:37:00,65.5,65.1,30.02,SSW,207,0.0,4.0,99,0.00,,,0.00,meteohub,2013-01-03 08:37:00,
2013-01-03 03:42:00,65.5,65.1,30.01,South,173,1.0,4.0,99,0.00,,,0.00,meteohub,2013-01-03 08:42:00,
2013-01-03 03:47:00,65.3,64.9,30.01,SSE,168,2.0,3.0,99,0.00,,,0.00,meteohub,2013-01-03 08:47:00,
2013-01-03 03:52:00,65.1,64.8,30.01,SSE,165,0.0,4.0,99,0.00,,,0.00,meteohub,2013-01-03 08:52:00,
2013-01-03 03:57:00,65.1,64.8,30.01,SE,132,2.0,4.0,99,0.00,,,0.00,meteohub,2013-01-03 08:57:00,
2013-01-03 04:02:00,64.9,64.6,30.01,SE,143,1.0,5.0,99,0.00,,,0.00,meteohub,2013-01-03 09:02:00,
2013-01-03 04:08:00,64.9,64.6,30.01,South,175,0.0,5.0,99,0.00,,,0.00,meteohub,2013-01-03 09:08:00,
2013-01-03 04:14:00,64.9,64.6,30.01,SSE,163,0.0,5.0,99,0.00,,,0.00,meteohub,2013-01-03 09:14:00,
2013-01-03 04:20:00,64.9,64.6,30.01,SE,126,1.0,3.0,99,0.00,,,0.00,meteohub,2013-01-03 09:20:00,
2013-01-03 04:26:00,64.8,64.4,30.01,SE,131,0.0,3.0,99,0.00,,,0.00,meteohub,2013-01-03 09:26:00,
2013-01-03 04:32:00,64.8,64.4,30.01,SE,129,1.0,3.0,99,0.00,,,0.00,meteohub,2013-01-03 09:32:00,
2013-01-03 04:37:00,64.8,64.4,30.01,SE,129,0.0,3.0,99,0.00,,,0.00,meteohub,2013-01-03 09:37:00,
2013-01-03 04:42:00,64.8,64.4,30.01,SSW,196,0.0,3.0,99,0.00,,,0.00,meteohub,2013-01-03 09:42:00,
2013-01-03 04:47:00,64.8,64.4,30.01,SSW,196,1.0,3.0,99,0.00,,,0.00,meteohub,2013-01-03 09:47:00,
2013-01-03 04:52:00,64.8,64.4,30.02,South,190,1.0,3.0,99,0.00,,,0.00,meteohub,2013-01-03 09:52:00,
2013-01-03 05:00:00,64.6,64.2,30.02,SSE,157,1.0,3.0,99,0.00,,,0.00,meteohub,2013-01-03 10:00:00,
2013-01-03 05:06:00,64.4,64.0,30.02,South,181,1.0,3.0,99,0.00,,,0.00,meteohub,2013-01-03 10:06:00,
2013-01-03 05:12:00,64.2,63.9,30.02,ESE,112,1.0,3.0,99,0.00,,,0.00,meteohub,2013-01-03 10:12:00,
2013-01-03 05:18:00,64.0,63.7,30.02,SSE,167,0.0,3.0,99,0.00,,,0.00,meteohub,2013-01-03 10:18:00,
2013-01-03 05:24:00,64.0,63.7,30.02,SSE,167,0.0,3.0,99,0.00,,,0.00,meteohub,2013-01-03 10:24:00,
2013-01-03 05:30:00,64.2,63.9,30.03,SSE,167,0.0,1.0,99,0.00,,,0.00,meteohub,2013-01-03 10:30:00,
2013-01-03 05:36:00,64.2,63.9,30.03,SSE,167,1.0,1.0,99,0.00,,,0.00,meteohub,2013-01-03 10:36:00,
2013-01-03 05:42:00,64.4,64.0,30.03,SSE,167,1.0,2.0,99,0.00,,,0.00,meteohub,2013-01-03 10:42:00,
2013-01-03 05:47:00,64.2,63.9,30.03,SSE,155,1.0,2.0,99,0.00,,,0.00,meteohub,2013-01-03 10:47:00,
2013-01-03 05:52:00,64.2,63.9,30.04,SSE,155,0.0,2.0,99,0.00,,,0.00,meteohub,2013-01-03 10:52:00,
2013-01-03 05:57:00,64.2,63.9,30.04,SSE,155,0.0,2.0,99,0.00,,,0.00,meteohub,2013-01-03 10:57:00,
2013-01-03 06:03:00,64.2,63.9,30.04,SSE,155,0.0,2.0,99,0.00,,,0.00,meteohub,2013-01-03 11:03:00,
2013-01-03 06:09:00,64.2,63.9,30.04,SSE,155,0.0,1.0,99,0.00,,,0.00,meteohub,2013-01-03 11:09:00,
2013-01-03 06:15:00,64.2,63.9,30.05,SSE,155,0.0,1.0,99,0.00,,,0.00,meteohub,2013-01-03 11:15:00,
2013-01-03 06:21:00,64.2,63.9,30.05,SSE,155,0.0,1.0,99,0.00,,,0.00,meteohub,2013-01-03 11:21:00,
2013-01-03 06:27:00,64.2,63.9,30.05,SSE,155,0.0,1.0,99,0.00,,,0.00,meteohub,2013-01-03 11:27:00,
2013-01-03 06:32:00,64.2,63.9,30.05,SSE,155,0.0,1.0,99,0.00,,,0.00,meteohub,2013-01-03 11:32:00,
2013-01-03 06:37:00,64.2,63.9,30.05,SSE,155,0.0,1.0,99,0.00,,,0.00,meteohub,2013-01-03 11:37:00,
2013-01-03 06:42:00,64.2,63.9,30.05,SSE,155,0.0,1.0,99,0.00,,,0.00,meteohub,2013-01-03 11:42:00,
2013-01-03 06:47:00,64.0,63.7,30.05,SSE,155,0.0,2.0,99,0.00,,,0.00,meteohub,2013-01-03 11:47:00,
2013-01-03 06:52:00,63.9,63.5,30.05,SSE,155,0.0,2.0,99,0.00,,,0.00,meteohub,2013-01-03 11:52:00,
2013-01-03 06:57:00,63.9,63.5,30.05,SSE,155,1.0,2.0,99,0.00,,,0.00,meteohub,2013-01-03 11:57:00,
2013-01-03 07:02:00,63.5,63.1,30.06,East,85,3.0,3.0,99,0.00,,,0.00,meteohub,2013-01-03 12:02:00,
2013-01-03 07:07:00,63.3,63.0,30.06,East,84,1.0,4.0,99,0.00,,,0.00,meteohub,2013-01-03 12:07:00,
2013-01-03 07:12:00,63.1,62.8,30.06,ESE,104,2.0,4.0,99,0.00,,,0.00,meteohub,2013-01-03 12:12:00,
2013-01-03 07:17:00,63.1,62.8,30.06,ESE,105,1.0,4.0,99,0.00,,,0.00,meteohub,2013-01-03 12:17:00,
2013-01-03 07:22:00,63.1,62.8,30.06,ESE,122,0.0,3.0,99,0.00,,,0.00,meteohub,2013-01-03 12:22:00,
2013-01-03 07:27:00,63.1,62.8,30.06,SE,129,0.0,3.0,99,0.00,,,0.00,meteohub,2013-01-03 12:27:00,
2013-01-03 07:32:00,63.1,62.8,30.06,SE,128,2.0,3.0,99,0.00,,,0.00,meteohub,2013-01-03 12:32:00,
2013-01-03 07:37:00,63.1,62.8,30.06,SE,132,1.0,3.0,99,0.00,,,0.00,meteohub,2013-01-03 12:37:00,
2013-01-03 07:42:00,63.1,62.8,30.06,SE,132,0.0,4.0,99,0.00,,,0.00,meteohub,2013-01-03 12:42:00,
2013-01-03 07:47:00,63.3,63.0,30.07,SE,132,0.0,4.0,99,0.00,,,0.00,meteohub,2013-01-03 12:47:00,
2013-01-03 07:52:00,63.3,63.0,30.07,SE,132,1.0,2.0,99,0.00,,,0.00,meteohub,2013-01-03 12:52:00,
2013-01-03 07:57:00,63.3,63.0,30.06,East,101,0.0,2.0,99,0.00,,,0.00,meteohub,2013-01-03 12:57:00,
2013-01-03 08:02:00,63.5,63.1,30.06,East,100,1.0,3.0,99,0.00,,,0.00,meteohub,2013-01-03 13:02:00,
2013-01-03 08:07:00,63.5,63.1,30.07,East,95,1.0,3.0,99,0.00,,,0.00,meteohub,2013-01-03 13:07:00,
2013-01-03 08:12:00,63.3,63.0,30.07,SE,133,0.0,4.0,99,0.00,,,0.00,meteohub,2013-01-03 13:12:00,
2013-01-03 08:17:00,63.5,63.1,30.07,SE,125,2.0,4.0,99,0.00,,,0.00,meteohub,2013-01-03 13:17:00,
2013-01-03 08:22:00,63.5,63.1,30.07,SE,125,0.0,4.0,99,0.00,,,0.00,meteohub,2013-01-03 13:22:00,
2013-01-03 08:27:00,63.7,63.3,30.08,ESE,108,0.0,4.0,99,0.00,,,0.00,meteohub,2013-01-03 13:27:00,
2013-01-03 08:32:00,63.7,63.3,30.07,SE,132,0.0,3.0,99,0.00,,,0.00,meteohub,2013-01-03 13:32:00,
2013-01-03 08:37:00,63.7,63.3,30.07,SE,132,0.0,4.0,99,0.00,,,0.00,meteohub,2013-01-03 13:37:00,
2013-01-03 08:42:00,63.9,63.5,30.07,SE,140,0.0,4.0,99,0.00,,,0.00,meteohub,2013-01-03 13:42:00,
2013-01-03 08:47:00,64.0,63.7,30.07,SE,134,1.0,4.0,99,0.00,,,0.00,meteohub,2013-01-03 13:47:00,
2013-01-03 08:52:00,63.9,63.5,30.07,SSE,151,2.0,3.0,99,0.00,,,0.00,meteohub,2013-01-03 13:52:00,
2013-01-03 08:57:00,63.9,63.5,30.07,ESE,120,1.0,5.0,99,0.00,,,0.00,meteohub,2013-01-03 13:57:00,
2013-01-03 09:02:00,63.7,63.3,30.08,SSE,160,1.0,5.0,99,0.00,,,0.00,meteohub,2013-01-03 14:02:00,
2013-01-03 09:07:00,63.9,63.5,30.08,SSE,160,1.0,5.0,99,0.00,,,0.00,meteohub,2013-01-03 14:07:00,
2013-01-03 09:12:00,63.9,63.5,30.08,South,189,1.0,5.0,99,0.00,,,0.00,meteohub,2013-01-03 14:12:00,
2013-01-03 09:17:00,64.0,63.7,30.08,SE,131,0.0,3.0,99,0.00,,,0.00,meteohub,2013-01-03 14:17:00,
2013-01-03 09:22:00,64.0,63.7,30.08,SE,130,1.0,3.0,99,0.00,,,0.00,meteohub,2013-01-03 14:22:00,
2013-01-03 09:28:00,64.0,63.7,30.08,SE,129,0.0,3.0,99,0.00,,,0.00,meteohub,2013-01-03 14:28:00,
2013-01-03 09:34:00,64.0,63.7,30.08,SE,128,2.0,3.0,99,0.00,,,0.00,meteohub,2013-01-03 14:34:00,
2013-01-03 09:40:00,64.0,63.7,30.09,SE,124,0.0,4.0,99,0.00,,,0.00,meteohub,2013-01-03 14:40:00,
2013-01-03 09:46:00,64.6,64.2,30.09,ESE,123,0.0,4.0,99,0.00,,,0.00,meteohub,2013-01-03 14:46:00,
2013-01-03 09:52:00,64.9,64.6,30.09,SE,134,1.0,3.0,99,0.00,,,0.00,meteohub,2013-01-03 14:52:00,
2013-01-03 09:57:00,64.8,64.4,30.09,SE,144,1.0,3.0,99,0.00,,,0.00,meteohub,2013-01-03 14:57:00,
2013-01-03 10:02:00,64.9,64.6,30.09,ESE,116,2.0,4.0,99,0.00,,,0.00,meteohub,2013-01-03 15:02:00,
2013-01-03 10:07:00,64.9,64.6,30.09,SE,141,0.0,4.0,99,0.00,,,0.00,meteohub,2013-01-03 15:07:00,
2013-01-03 10:12:00,65.1,64.8,30.09,SE,135,0.0,4.0,99,0.00,,,0.00,meteohub,2013-01-03 15:12:00,
2013-01-03 10:17:00,65.5,65.1,30.09,SE,126,0.0,4.0,99,0.00,,,0.00,meteohub,2013-01-03 15:17:00,
2013-01-03 10:22:00,65.7,65.3,30.09,SSE,153,0.0,4.0,99,0.00,,,0.00,meteohub,2013-01-03 15:22:00,
2013-01-03 10:27:00,66.0,65.7,30.09,SE,136,4.0,4.0,99,0.00,,,0.00,meteohub,2013-01-03 15:27:00,
2013-01-03 10:32:00,65.5,65.1,30.09,ENE,73,4.0,6.0,99,0.00,,,0.00,meteohub,2013-01-03 15:32:00,
2013-01-03 10:37:00,65.3,64.9,30.08,SE,129,2.0,6.0,99,0.00,,,0.00,meteohub,2013-01-03 15:37:00,
2013-01-03 10:42:00,65.3,64.9,30.08,East,98,0.0,6.0,99,0.00,,,0.00,meteohub,2013-01-03 15:42:00,
2013-01-03 10:47:00,65.1,64.8,30.09,SE,126,0.0,5.0,99,0.01,,,0.01,meteohub,2013-01-03 15:47:00,
2013-01-03 10:52:00,65.5,65.1,30.09,East,82,1.0,5.0,99,0.01,,,0.01,meteohub,2013-01-03 15:52:00,
2013-01-03 10:57:00,65.7,65.3,30.09,East,88,1.0,5.0,99,0.01,,,0.01,meteohub,2013-01-03 15:57:00,
2013-01-03 11:02:00,65.7,65.3,30.09,ESE,117,3.0,5.0,99,0.01,,,0.01,meteohub,2013-01-03 16:02:00,
2013-01-03 11:07:00,65.7,65.3,30.08,ENE,57,4.0,5.0,99,0.01,,,0.01,meteohub,2013-01-03 16:07:00,
2013-01-03 11:12:00,65.7,65.3,30.08,ESE,115,1.0,7.0,99,0.01,,,0.01,meteohub,2013-01-03 16:12:00,
2013-01-03 11:17:00,65.8,65.5,30.08,SE,131,3.0,7.0,99,0.01,,,0.01,meteohub,2013-01-03 16:17:00,
2013-01-03 11:22:00,65.8,65.5,30.08,ENE,71,0.0,7.0,99,0.01,,,0.01,meteohub,2013-01-03 16:22:00,
2013-01-03 11:27:00,65.8,65.5,30.08,SSE,151,3.0,5.0,99,0.01,,,0.01,meteohub,2013-01-03 16:27:00,
2013-01-03 11:32:00,66.0,65.7,30.08,East,82,1.0,5.0,99,0.01,,,0.01,meteohub,2013-01-03 16:32:00,
2013-01-03 11:37:00,66.2,65.8,30.07,ENE,76,2.0,5.0,99,0.01,,,0.01,meteohub,2013-01-03 16:37:00,
2013-01-03 11:42:00,66.0,65.5,30.07,East,82,2.0,7.0,98,0.00,,,0.01,meteohub,2013-01-03 16:42:00,
2013-01-03 11:47:00,66.4,65.8,30.06,SE,130,2.0,7.0,98,0.00,,,0.01,meteohub,2013-01-03 16:47:00,
2013-01-03 11:53:00,66.4,65.5,30.06,East,95,3.0,7.0,97,0.00,,,0.01,meteohub,2013-01-03 16:53:00,
2013-01-03 11:59:00,66.7,65.8,30.06,SE,124,3.0,7.0,97,0.00,,,0.01,meteohub,2013-01-03 16:59:00,
2013-01-03 12:05:00,66.9,65.7,30.06,East,96,3.0,6.0,96,0.00,,,0.01,meteohub,2013-01-03 17:05:00,
2013-01-03 12:11:00,67.3,66.0,30.06,SE,139,2.0,6.0,96,0.00,,,0.01,meteohub,2013-01-03 17:11:00,
2013-01-03 12:17:00,67.6,65.8,30.05,ENE,77,3.0,6.0,94,0.00,,,0.01,meteohub,2013-01-03 17:17:00,
2013-01-03 12:22:00,67.3,65.1,30.04,ENE,63,3.0,8.0,93,0.00,,,0.01,meteohub,2013-01-03 17:22:00,
2013-01-03 12:27:00,67.5,65.7,30.04,ENE,76,2.0,8.0,94,0.00,,,0.01,meteohub,2013-01-03 17:27:00,
2013-01-03 12:32:00,67.6,65.5,30.04,East,93,0.0,8.0,93,0.00,,,0.01,meteohub,2013-01-03 17:32:00,
2013-01-03 12:37:00,68.0,65.7,30.04,ENE,67,0.0,5.0,92,0.00,,,0.01,meteohub,2013-01-03 17:37:00,
2013-01-03 12:42:00,68.2,65.8,30.04,ESE,116,3.0,5.0,92,0.00,,,0.01,meteohub,2013-01-03 17:42:00,
2013-01-03 12:47:00,68.5,65.8,30.04,SE,134,2.0,5.0,91,0.00,,,0.01,meteohub,2013-01-03 17:47:00,
2013-01-03 12:52:00,68.7,66.0,30.04,SE,127,0.0,4.0,91,0.00,,,0.01,meteohub,2013-01-03 17:52:00,
2013-01-03 12:57:00,69.1,66.4,30.04,SE,128,1.0,3.0,91,0.00,,,0.01,meteohub,2013-01-03 17:57:00,
2013-01-03 13:02:00,69.1,66.0,30.04,SE,129,0.0,3.0,90,0.00,,,0.01,meteohub,2013-01-03 18:02:00,
2013-01-03 13:09:00,69.3,65.8,30.04,ESE,102,1.0,4.0,89,0.00,,,0.01,meteohub,2013-01-03 18:09:00,
2013-01-03 13:15:00,69.6,66.2,30.03,ESE,114,0.0,4.0,89,0.00,,,0.01,meteohub,2013-01-03 18:15:00,
2013-01-03 13:21:00,70.0,66.2,30.03,ESE,123,0.0,5.0,88,0.00,,,0.01,meteohub,2013-01-03 18:21:00,
2013-01-03 13:27:00,70.2,66.0,30.03,SE,125,1.0,5.0,87,0.00,,,0.01,meteohub,2013-01-03 18:27:00,
2013-01-03 13:32:00,70.5,66.4,30.04,SE,125,0.0,5.0,87,0.00,,,0.01,meteohub,2013-01-03 18:32:00,
2013-01-03 13:37:00,70.9,66.6,30.03,SE,125,0.0,4.0,86,0.00,,,0.01,meteohub,2013-01-03 18:37:00,
2013-01-03 13:42:00,70.9,66.6,30.03,SE,125,2.0,2.0,86,0.00,,,0.01,meteohub,2013-01-03 18:42:00,
2013-01-03 13:47:00,70.5,66.2,30.03,SE,128,0.0,3.0,86,0.00,,,0.01,meteohub,2013-01-03 18:47:00,
2013-01-03 13:52:00,70.5,66.2,30.03,SE,128,0.0,3.0,86,0.00,,,0.01,meteohub,2013-01-03 18:52:00,
2013-01-03 13:57:00,70.3,66.0,30.03,SE,128,1.0,3.0,86,0.00,,,0.01,meteohub,2013-01-03 18:57:00,
2013-01-03 14:02:00,70.3,66.0,30.03,SE,128,0.0,2.0,86,0.00,,,0.01,meteohub,2013-01-03 19:02:00,
2013-01-03 14:07:00,70.3,66.2,30.03,SE,128,0.0,2.0,87,0.00,,,0.01,meteohub,2013-01-03 19:07:00,
2013-01-03 14:12:00,70.3,66.6,30.03,SE,128,0.0,2.0,88,0.00,,,0.01,meteohub,2013-01-03 19:12:00,
2013-01-03 14:17:00,70.3,66.6,30.02,SE,128,1.0,1.0,88,0.00,,,0.01,meteohub,2013-01-03 19:17:00,
2013-01-03 14:56:00,66.6,63.9,30.03,NW,323,4.0,5.0,91,0.00,,,0.01,meteohub,2013-01-03 19:56:00,
2013-01-03 15:02:00,66.4,64.0,30.02,North,5,1.0,8.0,92,0.00,,,0.01,meteohub,2013-01-03 20:02:00,
2013-01-03 15:07:00,66.0,63.7,30.02,North,5,1.0,8.0,92,0.00,,,0.01,meteohub,2013-01-03 20:07:00,
2013-01-03 15:12:00,66.0,63.7,30.02,North,350,4.0,8.0,92,0.00,,,0.01,meteohub,2013-01-03 20:12:00,
2013-01-03 15:17:00,65.7,63.3,30.02,NW,318,1.0,8.0,92,0.00,,,0.01,meteohub,2013-01-03 20:17:00,
2013-01-03 15:22:00,65.7,63.3,30.02,NE,34,1.0,5.0,92,0.00,,,0.01,meteohub,2013-01-03 20:22:00,
2013-01-03 15:27:00,65.5,63.1,30.02,NNW,342,1.0,5.0,92,0.00,,,0.01,meteohub,2013-01-03 20:27:00,
2013-01-03 15:32:00,65.1,62.8,30.03,NNW,327,1.0,4.0,92,0.00,,,0.01,meteohub,2013-01-03 20:32:00,
2013-01-03 15:37:00,64.9,62.6,30.02,NNW,331,4.0,4.0,92,0.00,,,0.01,meteohub,2013-01-03 20:37:00,
2013-01-03 15:42:00,64.8,62.4,30.02,NNW,340,0.0,8.0,92,0.00,,,0.01,meteohub,2013-01-03 20:42:00,
2013-01-03 15:47:00,64.8,62.6,30.03,NW,325,1.0,8.0,93,0.00,,,0.01,meteohub,2013-01-03 20:47:00,
2013-01-03 15:52:00,64.6,62.4,30.04,NW,310,1.0,8.0,93,0.00,,,0.01,meteohub,2013-01-03 20:52:00,
2013-01-03 15:57:00,64.6,62.4,30.04,NW,307,3.0,4.0,93,0.00,,,0.01,meteohub,2013-01-03 20:57:00,
2013-01-03 16:02:00,64.4,62.6,30.05,NW,317,2.0,4.0,94,0.00,,,0.01,meteohub,2013-01-03 21:02:00,
2013-01-03 16:07:00,64.2,62.4,30.05,NNW,336,1.0,4.0,94,0.00,,,0.01,meteohub,2013-01-03 21:07:00,
2013-01-03 16:12:00,64.0,62.2,30.05,NNW,340,1.0,3.0,94,0.00,,,0.01,meteohub,2013-01-03 21:12:00,
2013-01-03 16:17:00,64.0,62.6,30.05,NNW,340,0.0,3.0,95,0.00,,,0.01,meteohub,2013-01-03 21:17:00,
2013-01-03 16:22:00,64.0,62.6,30.05,NNW,340,1.0,3.0,95,0.01,,,0.02,meteohub,2013-01-03 21:22:00,
2013-01-03 16:29:00,63.9,62.8,30.05,NNE,31,3.0,3.0,96,0.01,,,0.02,meteohub,2013-01-03 21:29:00,
2013-01-03 16:35:00,63.7,62.6,30.05,North,10,1.0,4.0,96,0.02,,,0.03,meteohub,2013-01-03 21:35:00,
2013-01-03 16:41:00,63.3,62.2,30.05,ENE,63,1.0,4.0,96,0.02,,,0.03,meteohub,2013-01-03 21:41:00,
2013-01-03 16:47:00,63.3,62.2,30.05,NE,36,0.0,5.0,96,0.03,,,0.04,meteohub,2013-01-03 21:47:00,
2013-01-03 16:54:00,63.3,62.4,30.06,NE,36,0.0,5.0,97,0.03,,,0.04,meteohub,2013-01-03 21:54:00,
2013-01-03 17:00:00,63.1,62.2,30.06,NE,37,0.0,5.0,97,0.04,,,0.05,meteohub,2013-01-03 22:00:00,
2013-01-03 17:06:00,63.1,62.2,30.06,North,9,0.0,5.0,97,0.04,,,0.05,meteohub,2013-01-03 22:06:00,
2013-01-03 17:12:00,63.1,62.2,30.06,NNE,21,2.0,4.0,97,0.04,,,0.05,meteohub,2013-01-03 22:12:00,
2013-01-03 17:17:00,63.1,62.2,30.06,NNE,27,0.0,4.0,97,0.03,,,0.05,meteohub,2013-01-03 22:17:00,
2013-01-03 17:22:00,63.1,62.2,30.06,NNE,27,0.0,4.0,97,0.03,,,0.05,meteohub,2013-01-03 22:22:00,
2013-01-03 17:27:00,63.1,62.2,30.06,NNE,27,0.0,4.0,97,0.03,,,0.05,meteohub,2013-01-03 22:27:00,
2013-01-03 17:32:00,63.1,62.2,30.06,NNE,27,0.0,4.0,97,0.04,,,0.07,meteohub,2013-01-03 22:32:00,
2013-01-03 17:37:00,63.1,62.2,30.06,NNE,28,1.0,2.0,97,0.04,,,0.07,meteohub,2013-01-03 22:37:00,
2013-01-03 17:42:00,63.0,62.1,30.06,NNE,28,0.0,2.0,97,0.04,,,0.08,meteohub,2013-01-03 22:42:00,
2013-01-03 17:47:00,63.0,62.1,30.07,NNE,28,0.0,2.0,97,0.05,,,0.09,meteohub,2013-01-03 22:47:00,
2013-01-03 17:52:00,63.0,62.1,30.07,NNE,28,1.0,2.0,97,0.05,,,0.09,meteohub,2013-01-03 22:52:00,
2013-01-03 17:57:00,63.1,62.6,30.07,NNE,28,0.0,2.0,98,0.06,,,0.10,meteohub,2013-01-03 22:57:00,
2013-01-03 18:02:00,63.1,62.6,30.07,NNE,28,1.0,2.0,98,0.05,,,0.10,meteohub,2013-01-03 23:02:00,
2013-01-03 18:07:00,63.1,62.6,30.08,NNE,28,1.0,2.0,98,0.05,,,0.10,meteohub,2013-01-03 23:07:00,
2013-01-03 18:12:00,63.1,62.6,30.08,NNE,29,2.0,3.0,98,0.06,,,0.11,meteohub,2013-01-03 23:12:00,
2013-01-03 18:17:00,63.1,62.6,30.09,NNE,31,2.0,3.0,98,0.06,,,0.11,meteohub,2013-01-03 23:17:00,
2013-01-03 18:22:00,63.1,62.6,30.08,ENE,70,4.0,4.0,98,0.07,,,0.12,meteohub,2013-01-03 23:22:00,
2013-01-03 18:27:00,63.1,62.6,30.09,NNE,33,1.0,7.0,98,0.06,,,0.12,meteohub,2013-01-03 23:27:00,
2013-01-03 18:32:00,63.1,62.6,30.09,NNE,31,5.0,7.0,98,0.05,,,0.12,meteohub,2013-01-03 23:32:00,
2013-01-03 18:37:00,62.6,62.1,30.09,NNE,20,8.0,8.0,98,0.05,,,0.13,meteohub,2013-01-03 23:37:00,
2013-01-03 18:42:00,62.1,61.2,30.09,NE,47,4.0,13.0,97,0.05,,,0.13,meteohub,2013-01-03 23:42:00,
2013-01-03 18:47:00,61.9,61.0,30.09,North,9,5.0,13.0,97,0.04,,,0.13,meteohub,2013-01-03 23:47:00,
2013-01-03 18:52:00,61.3,60.4,30.10,North,5,4.0,13.0,97,0.04,,,0.13,meteohub,2013-01-03 23:52:00,
2013-01-03 18:57:00,61.3,60.8,30.11,NNE,27,5.0,13.0,98,0.03,,,0.13,meteohub,2013-01-03 23:57:00,
2013-01-03 19:02:00,61.3,60.4,30.10,North,5,3.0,13.0,97,0.03,,,0.13,meteohub,2013-01-04 00:02:00,
2013-01-03 19:07:00,61.2,60.3,30.11,NNE,25,5.0,10.0,97,0.03,,,0.13,meteohub,2013-01-04 00:07:00,
2013-01-03 19:12:00,61.2,60.3,30.11,NNE,19,3.0,12.0,97,0.02,,,0.13,meteohub,2013-01-04 00:12:00,
2013-01-03 19:17:00,61.2,60.3,30.11,ENE,70,5.0,12.0,97,0.03,,,0.14,meteohub,2013-01-04 00:17:00,
2013-01-03 19:22:00,61.0,60.1,30.11,ENE,61,8.0,12.0,97,0.02,,,0.14,meteohub,2013-01-04 00:22:00,
2013-01-03 19:27:00,60.8,59.9,30.12,NE,38,5.0,11.0,97,0.03,,,0.15,meteohub,2013-01-04 00:27:00,
2013-01-03 19:32:00,60.4,59.5,30.12,NNE,28,4.0,11.0,97,0.02,,,0.15,meteohub,2013-01-04 00:32:00,
2013-01-03 19:37:00,60.1,59.2,30.12,ENE,68,4.0,11.0,97,0.02,,,0.15,meteohub,2013-01-04 00:37:00,
2013-01-03 19:42:00,59.7,58.8,30.12,NE,41,3.0,14.0,97,0.02,,,0.15,meteohub,2013-01-04 00:42:00,
2013-01-03 19:47:00,59.5,58.6,30.12,ENE,71,9.0,15.0,97,0.02,,,0.15,meteohub,2013-01-04 00:47:00,
2013-01-03 19:52:00,59.4,58.5,30.12,NE,53,3.0,15.0,97,0.02,,,0.15,meteohub,2013-01-04 00:52:00,
2013-01-03 19:57:00,59.4,58.5,30.13,NNE,23,6.0,11.0,97,0.02,,,0.15,meteohub,2013-01-04 00:57:00,
2013-01-03 20:02:00,59.2,58.3,30.13,ENE,62,5.0,11.0,97,0.03,,,0.16,meteohub,2013-01-04 01:02:00,
2013-01-03 20:07:00,59.2,58.3,30.13,ENE,59,5.0,11.0,97,0.03,,,0.16,meteohub,2013-01-04 01:07:00,
2013-01-03 20:12:00,59.0,58.1,30.13,NE,53,5.0,11.0,97,0.03,,,0.16,meteohub,2013-01-04 01:12:00,
2013-01-03 20:17:00,58.6,57.7,30.13,ENE,59,4.0,11.0,97,0.04,,,0.18,meteohub,2013-01-04 01:17:00,
2013-01-03 20:22:00,58.6,57.7,30.13,East,82,7.0,14.0,97,0.04,,,0.18,meteohub,2013-01-04 01:22:00,
2013-01-03 20:27:00,58.5,57.6,30.13,ENE,72,3.0,14.0,97,0.04,,,0.19,meteohub,2013-01-04 01:27:00,
2013-01-03 20:32:00,58.5,57.6,30.13,NNE,28,6.0,14.0,97,0.04,,,0.19,meteohub,2013-01-04 01:32:00,
2013-01-03 20:37:00,58.5,57.6,30.14,ENE,69,3.0,13.0,97,0.04,,,0.19,meteohub,2013-01-04 01:37:00,
2013-01-03 20:42:00,58.3,57.4,30.14,NE,34,2.0,13.0,97,0.04,,,0.19,meteohub,2013-01-04 01:42:00,
2013-01-03 20:47:00,58.3,57.4,30.14,NNE,17,5.0,13.0,97,0.04,,,0.19,meteohub,2013-01-04 01:47:00,
2013-01-03 20:52:00,58.3,57.4,30.14,ENE,61,3.0,10.0,97,0.04,,,0.19,meteohub,2013-01-04 01:52:00,
2013-01-03 20:57:00,58.3,57.4,30.13,NE,54,4.0,10.0,97,0.03,,,0.19,meteohub,2013-01-04 01:57:00,
2013-01-03 21:02:00,58.5,57.6,30.14,ESE,103,4.0,10.0,97,0.03,,,0.19,meteohub,2013-01-04 02:02:00,
2013-01-03 21:07:00,58.5,57.6,30.14,NNE,23,1.0,10.0,97,0.03,,,0.19,meteohub,2013-01-04 02:07:00,
2013-01-03 21:12:00,58.5,57.6,30.14,ENE,69,2.0,10.0,97,0.02,,,0.19,meteohub,2013-01-04 02:12:00,
2013-01-03 21:17:00,58.5,57.6,30.14,NE,47,3.0,10.0,97,0.01,,,0.19,meteohub,2013-01-04 02:17:00,
2013-01-03 21:22:00,58.5,57.6,30.14,NE,52,4.0,7.0,97,0.01,,,0.19,meteohub,2013-01-04 02:22:00,
2013-01-03 21:27:00,58.5,57.6,30.14,NNE,30,2.0,12.0,97,0.00,,,0.19,meteohub,2013-01-04 02:27:00,
2013-01-03 21:32:00,58.6,57.7,30.14,East,83,1.0,12.0,97,0.00,,,0.19,meteohub,2013-01-04 02:32:00,
2013-01-03 21:37:00,58.6,57.7,30.15,NNE,30,3.0,12.0,97,0.00,,,0.19,meteohub,2013-01-04 02:37:00,
2013-01-03 21:42:00,58.6,57.7,30.15,ENE,67,5.0,12.0,97,0.00,,,0.19,meteohub,2013-01-04 02:42:00,
2013-01-03 21:47:00,58.6,57.7,30.15,North,10,5.0,11.0,97,0.00,,,0.19,meteohub,2013-01-04 02:47:00,
2013-01-03 21:52:00,58.6,57.7,30.15,ENE,72,4.0,11.0,97,0.00,,,0.19,meteohub,2013-01-04 02:52:00,
2013-01-03 21:57:00,58.8,57.9,30.15,ENE,76,4.0,11.0,97,0.00,,,0.19,meteohub,2013-01-04 02:57:00,
2013-01-03 22:02:00,58.8,57.9,30.16,NE,40,3.0,10.0,97,0.00,,,0.19,meteohub,2013-01-04 03:02:00,
2013-01-03 22:07:00,58.8,57.9,30.16,ENE,67,4.0,8.0,97,0.01,,,0.20,meteohub,2013-01-04 03:07:00,
2013-01-03 22:12:00,58.8,57.9,30.16,ENE,65,2.0,11.0,97,0.02,,,0.21,meteohub,2013-01-04 03:12:00,
2013-01-03 22:17:00,58.8,57.9,30.16,ENE,61,3.0,11.0,97,0.03,,,0.22,meteohub,2013-01-04 03:17:00,
2013-01-03 22:22:00,58.8,57.9,30.16,NE,53,3.0,11.0,97,0.03,,,0.22,meteohub,2013-01-04 03:22:00,
2013-01-03 22:27:00,58.8,57.9,30.16,NE,53,4.0,10.0,97,0.04,,,0.23,meteohub,2013-01-04 03:27:00,
2013-01-03 22:32:00,58.8,57.9,30.16,NE,39,2.0,10.0,97,0.04,,,0.23,meteohub,2013-01-04 03:32:00,
2013-01-03 22:37:00,58.8,57.9,30.16,ENE,58,2.0,9.0,97,0.04,,,0.23,meteohub,2013-01-04 03:37:00,
2013-01-03 22:42:00,58.8,57.9,30.16,ENE,70,3.0,8.0,97,0.04,,,0.23,meteohub,2013-01-04 03:42:00,
2013-01-03 22:47:00,58.8,57.9,30.16,ENE,57,3.0,8.0,97,0.04,,,0.23,meteohub,2013-01-04 03:47:00,
2013-01-03 22:52:00,58.6,57.7,30.16,ENE,65,3.0,8.0,97,0.04,,,0.23,meteohub,2013-01-04 03:52:00,
2013-01-03 22:57:00,58.6,57.7,30.16,ENE,65,4.0,9.0,97,0.05,,,0.24,meteohub,2013-01-04 03:57:00,
2013-01-03 23:02:00,58.8,57.9,30.16,NE,48,3.0,9.0,97,0.04,,,0.24,meteohub,2013-01-04 04:02:00,
2013-01-03 23:07:00,58.6,57.7,30.15,ESE,115,3.0,9.0,97,0.03,,,0.24,meteohub,2013-01-04 04:07:00,
2013-01-03 23:12:00,58.8,57.9,30.15,East,84,3.0,9.0,97,0.02,,,0.24,meteohub,2013-01-04 04:12:00,
2013-01-03 23:17:00,58.8,57.9,30.15,NE,51,3.0,9.0,97,0.02,,,0.24,meteohub,2013-01-04 04:17:00,
2013-01-03 23:22:00,58.8,58.3,30.15,ENE,67,1.0,9.0,98,0.02,,,0.24,meteohub,2013-01-04 04:22:00,
2013-01-03 23:27:00,58.8,58.3,30.15,ENE,69,2.0,9.0,98,0.01,,,0.24,meteohub,2013-01-04 04:27:00,
2013-01-03 23:32:00,58.8,58.3,30.15,NE,56,3.0,9.0,98,0.01,,,0.24,meteohub,2013-01-04 04:32:00,
2013-01-03 23:37:00,58.8,58.3,30.15,NE,53,1.0,8.0,98,0.01,,,0.24,meteohub,2013-01-04 04:37:00,
2013-01-03 23:42:00,58.8,58.3,30.15,ENE,78,4.0,8.0,98,0.02,,,0.25,meteohub,2013-01-04 04:42:00,
2013-01-03 23:47:00,59.0,58.5,30.15,ENE,70,2.0,8.0,98,0.02,,,0.25,meteohub,2013-01-04 04:47:00,
2013-01-03 23:52:00,59.0,58.5,30.15,East,88,2.0,7.0,98,0.02,,,0.25,meteohub,2013-01-04 04:52:00,
2013-01-03 23:57:00,59.0,58.5,30.15,ENE,66,2.0,7.0,98,0.01,,,0.25,meteohub,2013-01-04 04:57:00,